Weather History for Worland, WY

Change the Weather History Date:

Sunday, May 26, 2013

  Actual Average Record
Temperature  
Mean Temperature 64 °F 58 °F  
Max Temperature 83 °F 73 °F 93 °F (1969)
Min Temperature 45 °F 44 °F 32 °F (1975)
Degree Days  
Heating Degree Days 1 7  
Month to date heating degree days 196 276  
Since 1 July heating degree days 7375 7743  
Cooling Degree Days 0 0  
Month to date cooling degree days 17 0  
Year to date cooling degree days 17 1  
Growing Degree Days 14 (Base 50)    
Moisture  
Dew Point 40 °F    
Average Humidity 47    
Maximum Humidity 76    
Minimum Humidity 17    
Precipitation  
Precipitation 0.00 in 0.05 in 0.73 in (1962)
Month to date precipitation 0.78 1.18  
Year to date precipitation 2.35 2.92  
Sea Level Pressure  
Sea Level Pressure 29.78 in    
Wind  
Wind Speed 4 mph (NNW)    
Max Wind Speed 28 mph    
Max Gust Speed 36 mph    
Visibility 10 miles    
Events Thunderstorm    
T = Trace of Precipitation, MM = Missing Value Source: NWS Daily Summary

Daily Weather History Graph

Daily Weather History Graph

Search for Another Location

Airport:

Trip Planner

Search our weather history database for the weather conditions in past years. The results will help you decide how hot, cold, wet, or windy it might be!

Date:

Astronomy

May. 26, 2013 Rise Set
Actual Time 5:35 AM MDT 8:42 PM MDT
Civil Twilight 5:00 AM MDT 9:17 PM MDT
Nautical Twilight 4:16 AM MDT 10:02 PM MDT
Astronomical Twilight 3:22 AM MDT 10:56 PM MDT
Moon 10:31 PM MDT (5/26) 7:08 AM MDT (5/26)
Length of Visible Light 16h 16m
Length of Day
15h 07m
Waning Gibbous, 96% of the Moon is Illuminated
May 26
Waning Gibbous
May 31
Last Quarter
Jun 8
New
Jun 16
First Quarter
Jun 23
Full

Hourly Weather History & Observations

Time (MDT) Temp. Dew Point Humidity Pressure Visibility Wind Dir Wind Speed Gust Speed Precip Events Conditions
12:53 AM 57.0 °F 39.9 °F 53% 29.81 in 10.0 mi Calm Calm - N/A   Clear
1:53 AM 55.9 °F 42.1 °F 60% 29.79 in 10.0 mi WSW 4.6 mph - N/A   Clear
2:53 AM 52.0 °F 39.9 °F 63% 29.80 in 10.0 mi SW 3.5 mph - N/A   Clear
3:53 AM 50.0 °F 39.0 °F 66% 29.81 in 10.0 mi Calm Calm - N/A   Clear
4:53 AM 51.1 °F 39.9 °F 66% 29.80 in 10.0 mi Calm Calm - N/A   Clear
5:53 AM 46.0 °F 39.9 °F 79% 29.84 in 10.0 mi Calm Calm - N/A   Clear
6:53 AM 53.1 °F 42.1 °F 66% 29.85 in 10.0 mi Calm Calm - N/A   Clear
7:53 AM 57.0 °F 39.0 °F 51% 29.87 in 10.0 mi Calm Calm - N/A   Clear
8:53 AM 60.1 °F 41.0 °F 49% 29.88 in 10.0 mi North 3.5 mph - N/A   Clear
9:53 AM 62.1 °F 41.0 °F 46% 29.87 in 10.0 mi NNE 5.8 mph - N/A   Clear
10:53 AM 64.0 °F 39.9 °F 41% 29.85 in 10.0 mi Calm Calm - N/A   Clear
11:53 AM 68.0 °F 41.0 °F 37% 29.82 in 10.0 mi West 3.5 mph - N/A   Clear
12:53 PM 72.0 °F 39.0 °F 30% 29.80 in 10.0 mi Calm Calm - N/A   Clear
1:53 PM 75.9 °F 39.0 °F 26% 29.75 in 10.0 mi North 5.8 mph - N/A   Clear
2:53 PM 77.0 °F 39.0 °F 25% 29.73 in 10.0 mi Calm Calm - N/A   Clear
3:53 PM 80.1 °F 37.0 °F 21% 29.68 in 10.0 mi NNW 6.9 mph - N/A   Clear
4:53 PM 82.0 °F 33.1 °F 17% 29.64 in 10.0 mi Calm Calm - N/A   Clear
5:53 PM 72.0 °F 41.0 °F 33% 29.70 in 10.0 mi NW 19.6 mph 26.5 mph N/A   Partly Cloudy
6:22 PM 71.6 °F 42.8 °F 35% 29.79 in 10.0 mi NW 19.6 mph 28.8 mph N/A Thunderstorm Partly Cloudy
6:37 PM 71.6 °F 41.0 °F 33% 29.79 in 10.0 mi NNW 18.4 mph - N/A   Partly Cloudy
6:53 PM 72.0 °F 41.0 °F 33% 29.70 in 10.0 mi NNE 11.5 mph - N/A   Partly Cloudy
7:53 PM 69.1 °F 42.1 °F 38% 29.69 in 10.0 mi NNE 9.2 mph - N/A   Clear
8:53 PM 62.1 °F 39.9 °F 44% 29.70 in 10.0 mi Calm Calm - N/A   Clear
9:53 PM 59.0 °F 39.9 °F 49% 29.73 in 10.0 mi Calm Calm - N/A   Clear
10:53 PM 57.9 °F 39.0 °F 49% 29.74 in 10.0 mi Calm Calm - N/A   Clear
11:53 PM 53.1 °F 39.0 °F 59% 29.73 in 10.0 mi SE 3.5 mph - N/A   Clear